Location: Bratislava
(48.1517°N, 17.1093°E)
Time: 10:09:53
(UTC+02:00)

N. Korean satellite - Visible Passes

Search period start: 26 March 2023 00:00
Search period end: 05 April 2023 01:00
Orbit: 392 x 417 km, 97.3° (Epoch: 25 March)

Date Brightness Start Highest point End Pass type
(mag) Time Alt. Az. Time Alt. Az. Time Alt. Az.
26 Mar 9.4 05:35:29 10° NE 05:37:37 17° E 05:39:43 10° SE visible
28 Mar 9.5 05:29:53 10° ENE 05:31:39 14° E 05:33:24 10° SE visible
30 Mar 9.7 05:23:55 10° ENE 05:25:07 12° E 05:26:18 10° ESE visible
04 Apr 8.9 05:50:01 10° NE 05:52:35 24° E 05:55:09 10° SSE visible
